Time,TemperatureF,DewpointF,PressureIn,WindDirection,WindDirectionDegrees,WindSpeedMPH,WindSpeedGustMPH,Humidity,HourlyPrecipIn,Conditions,Clouds,dailyrainin,SoftwareType,DateUTC
2013-03-11 00:00:00,32.0,11.5,30.00,South,182,0.0,2.7,42,0.00,,---,0.00,VWS V13.00,2013-03-11 08:00:00,
2013-03-11 00:05:00,32.0,12.1,30.03,SSW,205,0.0,2.7,43,0.00,,---,0.00,VWS V13.00,2013-03-11 08:05:00,
2013-03-11 00:10:00,32.0,12.1,30.03,South,176,0.0,10.1,43,0.00,,---,0.00,VWS V13.00,2013-03-11 08:10:00,
2013-03-11 00:15:00,31.8,11.9,30.03,SSE,160,0.0,10.1,43,0.00,,---,0.00,VWS V13.00,2013-03-11 08:15:00,
2013-03-11 00:20:00,31.8,11.4,30.03,SSW,209,0.0,0.0,42,0.00,,---,0.00,VWS V13.00,2013-03-11 08:20:00,
2013-03-11 00:25:00,31.8,11.4,30.03,NNW,345,0.0,0.0,42,0.00,,---,0.00,VWS V13.00,2013-03-11 08:25:00,
2013-03-11 00:30:00,31.8,11.4,30.03,WNW,296,0.0,0.0,42,0.00,,---,0.00,VWS V13.00,2013-03-11 08:30:00,
2013-03-11 00:35:00,32.0,11.5,30.03,NE,35,0.0,8.7,42,0.00,,---,0.00,VWS V13.00,2013-03-11 08:35:00,
2013-03-11 00:40:00,31.8,11.4,30.03,NNE,24,0.0,0.0,42,0.00,,---,0.00,VWS V13.00,2013-03-11 08:40:00,
2013-03-11 00:45:00,31.8,11.4,30.03,NNW,331,0.0,9.2,42,0.00,,---,0.00,VWS V13.00,2013-03-11 08:45:00,
2013-03-11 00:50:00,31.8,11.4,30.03,ESE,120,0.0,9.2,42,0.00,,---,0.00,VWS V13.00,2013-03-11 08:50:00,
2013-03-11 00:55:00,31.5,11.0,30.03,NNW,346,0.0,9.2,42,0.00,,---,0.00,VWS V13.00,2013-03-11 08:55:00,
2013-03-11 01:00:00,31.6,11.2,30.03,NW,315,0.0,9.2,42,0.00,,---,0.00,VWS V13.00,2013-03-11 09:00:00,
2013-03-11 01:05:00,31.5,11.0,30.03,SE,132,0.0,8.7,42,0.00,,---,0.00,VWS V13.00,2013-03-11 09:05:00,
2013-03-11 01:10:00,31.5,11.0,30.03,NNW,334,3.6,8.7,42,0.00,,---,0.00,VWS V13.00,2013-03-11 09:10:00,
2013-03-11 01:15:00,31.3,10.9,30.03,SE,126,0.0,8.7,42,0.00,,---,0.00,VWS V13.00,2013-03-11 09:15:00,
2013-03-11 01:20:00,31.1,10.7,30.03,ENE,58,0.0,0.0,42,0.00,,---,0.00,VWS V13.00,2013-03-11 09:20:00,
2013-03-11 01:25:00,31.3,10.9,30.03,East,87,2.2,11.0,42,0.00,,---,0.00,VWS V13.00,2013-03-11 09:25:00,
2013-03-11 01:30:00,31.1,10.7,30.03,ESE,119,0.0,11.0,42,0.00,,---,0.00,VWS V13.00,2013-03-11 09:30:00,
2013-03-11 01:35:00,31.1,10.7,30.03,NW,309,0.0,11.0,42,0.00,,---,0.00,VWS V13.00,2013-03-11 09:35:00,
2013-03-11 01:40:00,31.1,10.7,30.03,North,357,0.0,11.0,42,0.00,,---,0.00,VWS V13.00,2013-03-11 09:40:00,
2013-03-11 01:45:00,31.5,11.0,30.03,East,89,0.0,2.7,42,0.00,,---,0.00,VWS V13.00,2013-03-11 09:45:00,
2013-03-11 01:50:00,31.5,11.0,30.03,NNW,346,4.0,8.7,42,0.00,,---,0.00,VWS V13.00,2013-03-11 09:50:00,
2013-03-11 01:55:00,31.3,10.9,30.03,WSW,258,0.0,11.0,42,0.00,,---,0.00,VWS V13.00,2013-03-11 09:55:00,
2013-03-11 02:00:00,31.1,10.7,30.03,NW,324,0.0,0.0,42,0.00,,---,0.00,VWS V13.00,2013-03-11 10:00:00,
2013-03-11 02:05:00,31.1,10.7,30.03,NNW,342,0.0,0.0,42,0.00,,---,0.00,VWS V13.00,2013-03-11 10:05:00,
2013-03-11 02:10:00,30.7,10.4,30.03,ENE,77,0.0,0.0,42,0.00,,---,0.00,VWS V13.00,2013-03-11 10:10:00,
2013-03-11 02:15:00,30.6,10.7,30.03,SSE,160,0.0,0.0,43,0.00,,---,0.00,VWS V13.00,2013-03-11 10:15:00,
2013-03-11 02:20:00,30.4,10.6,30.03,SSW,212,0.0,0.0,43,0.00,,---,0.00,VWS V13.00,2013-03-11 10:20:00,
2013-03-11 02:25:00,30.2,10.9,30.03,WSW,253,0.0,0.0,44,0.00,,---,0.00,VWS V13.00,2013-03-11 10:25:00,
2013-03-11 02:30:00,30.0,10.8,30.03,WSW,257,0.0,0.0,44,0.00,,---,0.00,VWS V13.00,2013-03-11 10:30:00,
2013-03-11 02:35:00,29.7,10.4,30.03,WNW,301,0.0,0.0,44,0.00,,---,0.00,VWS V13.00,2013-03-11 10:35:00,
2013-03-11 02:40:00,29.8,10.6,30.03,WSW,242,0.0,0.0,44,0.00,,---,0.00,VWS V13.00,2013-03-11 10:40:00,
2013-03-11 02:45:00,30.0,10.8,30.03,NNW,334,0.0,0.0,44,0.00,,---,0.00,VWS V13.00,2013-03-11 10:45:00,
2013-03-11 02:50:00,30.2,10.4,30.06,WNW,299,0.0,0.0,43,0.00,,---,0.00,VWS V13.00,2013-03-11 10:50:00,
2013-03-11 02:55:00,30.2,10.9,30.06,North,353,0.0,0.0,44,0.00,,---,0.00,VWS V13.00,2013-03-11 10:55:00,
2013-03-11 03:00:00,30.2,10.9,30.06,West,266,0.0,0.0,44,0.00,,---,0.00,VWS V13.00,2013-03-11 11:00:00,
2013-03-11 03:05:00,29.8,10.6,30.06,West,270,0.0,0.0,44,0.00,,---,0.00,VWS V13.00,2013-03-11 11:05:00,
2013-03-11 03:10:00,29.7,10.4,30.06,SSE,157,0.0,0.0,44,0.00,,---,0.00,VWS V13.00,2013-03-11 11:10:00,
2013-03-11 03:15:00,29.8,10.6,30.06,SE,125,0.0,6.7,44,0.00,,---,0.00,VWS V13.00,2013-03-11 11:15:00,
2013-03-11 03:20:00,30.0,10.8,30.06,NNW,334,0.0,6.7,44,0.00,,---,0.00,VWS V13.00,2013-03-11 11:20:00,
2013-03-11 03:25:00,30.2,10.9,30.06,South,172,0.0,5.8,44,0.00,,---,0.00,VWS V13.00,2013-03-11 11:25:00,
2013-03-11 03:30:00,30.0,10.8,30.06,WNW,295,3.1,5.8,44,0.00,,---,0.00,VWS V13.00,2013-03-11 11:30:00,
2013-03-11 03:35:00,29.7,10.9,30.06,SE,126,0.0,5.8,45,0.00,,---,0.00,VWS V13.00,2013-03-11 11:35:00,
2013-03-11 03:40:00,29.7,10.9,30.06,NNW,337,0.0,0.0,45,0.00,,---,0.00,VWS V13.00,2013-03-11 11:40:00,
2013-03-11 03:45:00,29.7,10.9,30.06,SSW,199,0.0,0.0,45,0.00,,---,0.00,VWS V13.00,2013-03-11 11:45:00,
2013-03-11 03:50:00,29.5,10.8,30.06,SW,221,0.0,0.0,45,0.00,,---,0.00,VWS V13.00,2013-03-11 11:50:00,
2013-03-11 03:55:00,29.5,10.8,30.06,SSE,158,0.0,0.0,45,0.00,,---,0.00,VWS V13.00,2013-03-11 11:55:00,
2013-03-11 04:00:00,29.3,10.6,30.06,SSW,199,0.0,0.0,45,0.00,,---,0.00,VWS V13.00,2013-03-11 12:00:00,
2013-03-11 04:05:00,29.3,10.6,30.06,SSE,159,0.0,0.0,45,0.00,,---,0.00,VWS V13.00,2013-03-11 12:05:00,
2013-03-11 04:10:00,29.3,10.6,30.06,SE,142,0.0,0.0,45,0.00,,---,0.00,VWS V13.00,2013-03-11 12:10:00,
2013-03-11 04:15:00,29.5,10.8,30.06,East,82,0.0,0.0,45,0.00,,---,0.00,VWS V13.00,2013-03-11 12:15:00,
2013-03-11 04:20:00,29.7,10.4,30.06,ESE,117,0.0,0.0,44,0.00,,---,0.00,VWS V13.00,2013-03-11 12:20:00,
2013-03-11 04:25:00,29.5,10.3,30.06,ENE,75,0.0,0.0,44,0.00,,---,0.00,VWS V13.00,2013-03-11 12:25:00,
2013-03-11 04:30:00,29.7,10.4,30.06,ENE,57,0.0,0.0,44,0.00,,---,0.00,VWS V13.00,2013-03-11 12:30:00,
2013-03-11 04:35:00,29.5,10.8,30.06,East,82,0.0,0.0,45,0.00,,---,0.00,VWS V13.00,2013-03-11 12:35:00,
2013-03-11 04:40:00,29.7,10.4,30.06,NNW,343,0.0,0.0,44,0.00,,---,0.00,VWS V13.00,2013-03-11 12:40:00,
2013-03-11 04:45:00,29.5,10.8,30.06,NNW,338,0.0,0.0,45,0.00,,---,0.00,VWS V13.00,2013-03-11 12:45:00,
2013-03-11 04:50:00,29.5,10.8,30.06,South,190,0.0,0.0,45,0.00,,---,0.00,VWS V13.00,2013-03-11 12:50:00,
2013-03-11 04:55:00,29.1,10.4,30.06,WSW,241,0.0,0.0,45,0.00,,---,0.00,VWS V13.00,2013-03-11 12:55:00,
2013-03-11 05:00:00,29.5,10.3,30.06,SSW,197,0.0,3.6,44,0.00,,---,0.00,VWS V13.00,2013-03-11 13:00:00,
2013-03-11 05:05:00,29.5,10.3,30.06,West,260,0.0,0.0,44,0.00,,---,0.00,VWS V13.00,2013-03-11 13:05:00,
2013-03-11 05:10:00,29.3,10.1,30.06,WNW,290,0.0,0.0,44,0.00,,---,0.00,VWS V13.00,2013-03-11 13:10:00,
2013-03-11 05:15:00,29.1,10.4,30.06,NNW,332,0.0,0.0,45,0.00,,---,0.00,VWS V13.00,2013-03-11 13:15:00,
2013-03-11 05:20:00,28.9,10.3,30.06,NW,305,0.0,0.0,45,0.00,,---,0.00,VWS V13.00,2013-03-11 13:20:00,
2013-03-11 05:25:00,29.1,9.9,30.06,WSW,249,0.0,10.1,44,0.00,,---,0.00,VWS V13.00,2013-03-11 13:25:00,
2013-03-11 05:30:00,29.5,10.3,30.06,North,353,0.0,10.1,44,0.00,,---,0.00,VWS V13.00,2013-03-11 13:30:00,
2013-03-11 05:35:00,29.5,10.3,30.03,North,350,0.0,10.1,44,0.00,,---,0.00,VWS V13.00,2013-03-11 13:35:00,
2013-03-11 05:40:00,29.3,10.1,30.03,SW,220,0.0,10.1,44,0.00,,---,0.00,VWS V13.00,2013-03-11 13:40:00,
2013-03-11 05:45:00,29.1,9.9,30.03,North,357,0.0,0.0,44,0.00,,---,0.00,VWS V13.00,2013-03-11 13:45:00,
2013-03-11 05:50:00,29.1,9.9,30.03,WSW,246,0.0,3.6,44,0.00,,---,0.00,VWS V13.00,2013-03-11 13:50:00,
2013-03-11 05:55:00,28.9,9.8,30.03,NW,315,0.0,5.8,44,0.00,,---,0.00,VWS V13.00,2013-03-11 13:55:00,
2013-03-11 06:00:00,28.8,9.6,30.03,NW,317,2.7,5.8,44,0.00,,---,0.00,VWS V13.00,2013-03-11 14:00:00,
2013-03-11 06:05:00,28.8,9.6,30.03,NNW,332,0.0,7.6,44,0.00,,---,0.00,VWS V13.00,2013-03-11 14:05:00,
2013-03-11 06:10:00,28.6,9.4,30.03,SE,128,0.0,7.6,44,0.00,,---,0.00,VWS V13.00,2013-03-11 14:10:00,
2013-03-11 06:15:00,28.6,9.4,30.03,NNE,20,0.0,7.6,44,0.00,,---,0.00,VWS V13.00,2013-03-11 14:15:00,
2013-03-11 06:20:00,28.4,9.8,30.03,WNW,287,0.0,7.6,45,0.00,,---,0.00,VWS V13.00,2013-03-11 14:20:00,
2013-03-11 06:25:00,28.4,9.8,30.03,West,280,0.0,4.5,45,0.00,,---,0.00,VWS V13.00,2013-03-11 14:25:00,
2013-03-11 06:30:00,28.4,9.8,30.03,NE,51,0.0,4.5,45,0.00,,---,0.00,VWS V13.00,2013-03-11 14:30:00,
2013-03-11 06:35:00,28.6,9.4,30.03,ESE,121,0.0,4.5,44,0.00,,---,0.00,VWS V13.00,2013-03-11 14:35:00,
2013-03-11 06:39:00,28.6,9.4,30.03,NNW,337,0.0,4.5,44,0.00,,---,0.00,VWS V13.00,2013-03-11 14:39:00,
2013-03-11 06:44:00,28.6,9.4,30.03,NNE,30,0.0,6.3,44,0.00,,---,0.00,VWS V13.00,2013-03-11 14:44:00,
2013-03-11 06:49:00,28.6,9.4,30.03,WNW,286,0.0,6.3,44,0.00,,---,0.00,VWS V13.00,2013-03-11 14:49:00,
2013-03-11 06:54:00,28.6,8.9,30.03,NE,36,0.0,8.3,43,0.00,,---,0.00,VWS V13.00,2013-03-11 14:54:00,
2013-03-11 06:59:00,28.9,9.3,30.03,NW,313,0.0,8.7,43,0.00,,---,0.00,VWS V13.00,2013-03-11 14:59:00,
2013-03-11 07:04:00,29.3,9.6,30.03,North,6,0.0,0.0,43,0.00,,---,0.00,VWS V13.00,2013-03-11 15:04:00,
2013-03-11 07:09:00,29.5,9.8,30.03,NNE,20,0.0,7.6,43,0.00,,---,0.00,VWS V13.00,2013-03-11 15:09:00,
2013-03-11 07:14:00,29.5,9.8,30.03,SSW,211,0.0,11.0,43,0.00,,---,0.00,VWS V13.00,2013-03-11 15:14:00,
2013-03-11 07:19:00,29.5,9.8,30.03,SE,138,0.0,11.0,43,0.00,,---,0.00,VWS V13.00,2013-03-11 15:19:00,
2013-03-11 07:24:00,29.5,9.8,30.03,ESE,120,0.0,0.0,43,0.00,,---,0.00,VWS V13.00,2013-03-11 15:24:00,
2013-03-11 07:29:00,29.5,9.8,30.03,NE,52,0.0,0.0,43,0.00,,---,0.00,VWS V13.00,2013-03-11 15:29:00,
2013-03-11 07:35:00,29.5,9.8,30.03,North,8,0.0,10.1,43,0.00,,---,0.00,VWS V13.00,2013-03-11 15:35:00,
2013-03-11 07:40:00,29.7,9.9,30.03,North,10,0.0,13.2,43,0.00,,---,0.00,VWS V13.00,2013-03-11 15:40:00,
2013-03-11 07:45:00,29.5,9.8,30.03,East,85,0.0,7.6,43,0.00,,---,0.00,VWS V13.00,2013-03-11 15:45:00,
2013-03-11 07:49:00,29.5,10.3,30.03,North,353,0.0,7.6,44,0.00,,---,0.00,VWS V13.00,2013-03-11 15:49:00,
2013-03-11 07:54:00,29.3,10.1,30.03,North,9,6.3,8.7,44,0.00,,---,0.00,VWS V13.00,2013-03-11 15:54:00,
2013-03-11 07:59:00,29.1,10.4,30.03,South,182,0.0,8.7,45,0.00,,---,0.00,VWS V13.00,2013-03-11 15:59:00,
2013-03-11 08:04:00,29.3,10.6,30.03,North,357,0.0,0.0,45,0.00,,---,0.00,VWS V13.00,2013-03-11 16:04:00,
2013-03-11 08:09:00,29.3,10.6,30.03,NW,306,0.0,0.0,45,0.00,,---,0.00,VWS V13.00,2013-03-11 16:09:00,
2013-03-11 08:14:00,28.9,10.3,30.03,WSW,244,0.0,0.0,45,0.00,,---,0.00,VWS V13.00,2013-03-11 16:14:00,
2013-03-11 08:19:00,29.1,10.4,30.03,NNE,21,0.0,0.0,45,0.00,,---,0.00,VWS V13.00,2013-03-11 16:19:00,
2013-03-11 08:24:00,29.3,10.6,30.03,SSW,193,0.0,0.0,45,0.00,,---,0.00,VWS V13.00,2013-03-11 16:24:00,
2013-03-11 08:29:00,28.9,10.3,30.03,ENE,67,0.0,0.0,45,0.00,,---,0.00,VWS V13.00,2013-03-11 16:29:00,
2013-03-11 08:34:00,28.9,10.3,30.03,East,100,0.0,0.0,45,0.00,,---,0.00,VWS V13.00,2013-03-11 16:34:00,
2013-03-11 08:39:00,28.9,10.3,30.03,SSW,194,0.0,0.0,45,0.00,,---,0.00,VWS V13.00,2013-03-11 16:39:00,
2013-03-11 08:44:00,28.9,10.3,30.03,SW,222,0.0,0.0,45,0.00,,---,0.00,VWS V13.00,2013-03-11 16:44:00,
2013-03-11 08:49:00,29.3,10.6,30.03,West,278,0.0,0.0,45,0.00,,---,0.00,VWS V13.00,2013-03-11 16:49:00,
2013-03-11 08:54:00,29.5,10.8,30.03,West,266,0.0,0.0,45,0.00,,---,0.00,VWS V13.00,2013-03-11 16:54:00,
2013-03-11 08:59:00,29.7,10.9,30.03,WSW,249,0.0,0.0,45,0.00,,---,0.00,VWS V13.00,2013-03-11 16:59:00,
2013-03-11 09:04:00,30.2,10.9,30.03,ENE,61,0.0,0.0,44,0.00,,---,0.00,VWS V13.00,2013-03-11 17:04:00,
2013-03-11 09:10:00,30.6,10.7,30.03,East,95,0.0,4.0,43,0.00,,---,0.00,VWS V13.00,2013-03-11 17:10:00,
2013-03-11 09:15:00,30.6,10.7,30.03,North,6,0.0,8.1,43,0.00,,---,0.00,VWS V13.00,2013-03-11 17:15:00,
2013-03-11 09:20:00,30.2,10.9,30.03,NW,307,0.0,10.1,44,0.00,,---,0.00,VWS V13.00,2013-03-11 17:20:00,
2013-03-11 09:25:00,30.4,11.1,30.03,NNE,28,3.1,3.1,44,0.00,,---,0.00,VWS V13.00,2013-03-11 17:25:00,
2013-03-11 09:30:00,30.2,10.9,30.03,NNW,339,0.0,10.1,44,0.00,,---,0.00,VWS V13.00,2013-03-11 17:30:00,
2013-03-11 09:35:00,30.2,10.9,30.03,East,83,6.3,10.1,44,0.00,,---,0.00,VWS V13.00,2013-03-11 17:35:00,
2013-03-11 09:40:00,30.6,11.2,30.03,ESE,114,0.0,10.1,44,0.00,,---,0.00,VWS V13.00,2013-03-11 17:40:00,
2013-03-11 09:45:00,31.1,11.8,30.03,North,350,8.1,8.1,44,0.00,,---,0.00,VWS V13.00,2013-03-11 17:45:00,
2013-03-11 09:50:00,31.5,11.6,30.03,NNW,333,0.0,10.5,43,0.00,,---,0.00,VWS V13.00,2013-03-11 17:50:00,
2013-03-11 09:55:00,31.8,11.9,30.03,NE,55,3.6,11.0,43,0.00,,---,0.00,VWS V13.00,2013-03-11 17:55:00,
2013-03-11 10:00:00,31.6,11.7,30.03,NW,312,0.0,11.0,43,0.00,,---,0.00,VWS V13.00,2013-03-11 18:00:00,
2013-03-11 10:05:00,32.0,12.1,30.03,SE,125,0.0,8.7,43,0.00,,---,0.00,VWS V13.00,2013-03-11 18:05:00,
2013-03-11 10:10:00,32.4,12.4,30.03,NW,324,0.0,10.1,43,0.00,,---,0.00,VWS V13.00,2013-03-11 18:10:00,
2013-03-11 10:15:00,32.7,12.7,30.03,North,1,0.0,10.1,43,0.00,,---,0.00,VWS V13.00,2013-03-11 18:15:00,
2013-03-11 10:20:00,33.1,13.0,30.03,NNW,341,4.0,11.0,43,0.00,,---,0.00,VWS V13.00,2013-03-11 18:20:00,
2013-03-11 10:25:00,33.3,12.7,30.03,East,89,0.0,8.7,42,0.00,,---,0.00,VWS V13.00,2013-03-11 18:25:00,
2013-03-11 10:30:00,33.4,13.4,30.03,NE,48,0.0,11.0,43,0.00,,---,0.00,VWS V13.00,2013-03-11 18:30:00,
2013-03-11 10:35:00,33.8,13.1,30.03,North,357,5.4,11.0,42,0.00,,---,0.00,VWS V13.00,2013-03-11 18:35:00,
2013-03-11 10:40:00,34.0,13.3,30.03,NNE,33,15.0,17.4,42,0.00,,---,0.00,VWS V13.00,2013-03-11 18:40:00,
2013-03-11 10:45:00,34.2,13.5,30.03,SSW,205,3.1,15.0,42,0.00,,---,0.00,VWS V13.00,2013-03-11 18:45:00,
2013-03-11 10:50:00,34.3,13.6,30.03,NNE,12,0.0,15.0,42,0.00,,---,0.00,VWS V13.00,2013-03-11 18:50:00,
2013-03-11 10:55:00,34.5,13.8,30.03,NE,53,0.0,15.0,42,0.00,,---,0.00,VWS V13.00,2013-03-11 18:55:00,
2013-03-11 11:00:00,34.7,14.0,30.03,WSW,250,0.0,15.0,42,0.00,,---,0.00,VWS V13.00,2013-03-11 19:00:00,
2013-03-11 11:05:00,34.5,13.8,30.03,WSW,245,5.4,10.1,42,0.00,,---,0.00,VWS V13.00,2013-03-11 19:05:00,
2013-03-11 11:10:00,34.3,13.6,30.03,North,7,0.0,10.1,42,0.00,,---,0.00,VWS V13.00,2013-03-11 19:10:00,
2013-03-11 11:15:00,34.7,14.0,30.03,East,93,0.0,10.1,42,0.00,,---,0.00,VWS V13.00,2013-03-11 19:15:00,
2013-03-11 11:20:00,34.5,13.8,30.03,ENE,75,0.0,10.1,42,0.00,,---,0.00,VWS V13.00,2013-03-11 19:20:00,
2013-03-11 11:25:00,34.5,13.8,30.03,East,90,0.0,8.3,42,0.00,,---,0.00,VWS V13.00,2013-03-11 19:25:00,
2013-03-11 11:30:00,34.3,13.6,30.03,NW,310,11.0,11.0,42,0.00,,---,0.00,VWS V13.00,2013-03-11 19:30:00,
2013-03-11 11:35:00,34.7,14.0,30.03,NNE,19,0.0,11.0,42,0.00,,---,0.00,VWS V13.00,2013-03-11 19:35:00,
2013-03-11 11:40:00,34.7,14.0,30.03,North,4,4.0,4.0,42,0.00,,---,0.00,VWS V13.00,2013-03-11 19:40:00,
2013-03-11 11:45:00,34.7,14.0,30.03,ENE,61,0.0,10.1,42,0.00,,---,0.00,VWS V13.00,2013-03-11 19:45:00,
2013-03-11 11:50:00,35.1,14.8,30.03,WNW,291,0.0,10.1,43,0.00,,---,0.00,VWS V13.00,2013-03-11 19:50:00,
2013-03-11 11:55:00,34.9,14.1,30.03,North,3,0.0,10.1,42,0.00,,---,0.00,VWS V13.00,2013-03-11 19:55:00,
2013-03-11 12:00:00,35.6,15.3,30.03,NW,326,0.0,11.0,43,0.00,,---,0.00,VWS V13.00,2013-03-11 20:00:00,
2013-03-11 12:05:00,36.1,15.3,30.03,NNE,25,0.0,4.0,42,0.00,,---,0.00,VWS V13.00,2013-03-11 20:05:00,
2013-03-11 12:10:00,36.1,15.3,30.03,ENE,73,0.0,8.1,42,0.00,,---,0.00,VWS V13.00,2013-03-11 20:10:00,
2013-03-11 12:15:00,35.8,14.9,30.03,NW,309,6.3,10.5,42,0.00,,---,0.00,VWS V13.00,2013-03-11 20:15:00,
2013-03-11 12:20:00,36.1,15.8,30.03,SSE,158,0.0,10.5,43,0.00,,---,0.00,VWS V13.00,2013-03-11 20:20:00,
2013-03-11 12:25:00,37.0,16.6,30.03,NE,51,0.0,13.2,43,0.00,,---,0.00,VWS V13.00,2013-03-11 20:25:00,
2013-03-11 12:30:00,36.9,15.9,30.03,NE,43,0.0,13.2,42,0.00,,---,0.00,VWS V13.00,2013-03-11 20:30:00,
2013-03-11 12:35:00,36.9,15.9,30.03,North,350,0.0,13.2,42,0.00,,---,0.00,VWS V13.00,2013-03-11 20:35:00,
2013-03-11 12:40:00,36.7,15.8,30.03,North,0,0.0,13.2,42,0.00,,---,0.00,VWS V13.00,2013-03-11 20:40:00,
2013-03-11 12:45:00,37.0,16.6,30.03,NNW,333,6.3,6.3,43,0.00,,---,0.00,VWS V13.00,2013-03-11 20:45:00,
2013-03-11 12:50:00,37.2,16.8,30.03,NNW,341,4.5,7.2,43,0.00,,---,0.00,VWS V13.00,2013-03-11 20:50:00,
2013-03-11 12:55:00,37.2,16.3,30.03,NW,324,0.0,8.3,42,0.00,,---,0.00,VWS V13.00,2013-03-11 20:55:00,
2013-03-11 13:00:00,37.6,16.6,30.03,ENE,65,0.0,8.3,42,0.00,,---,0.00,VWS V13.00,2013-03-11 21:00:00,
2013-03-11 13:05:00,37.6,16.6,30.03,ENE,72,0.0,4.5,42,0.00,,---,0.00,VWS V13.00,2013-03-11 21:05:00,
2013-03-11 13:10:00,38.7,17.6,30.03,NNE,15,0.0,8.3,42,0.00,,---,0.00,VWS V13.00,2013-03-11 21:10:00,
2013-03-11 13:15:00,38.7,17.6,30.03,North,10,0.0,8.3,42,0.00,,---,0.00,VWS V13.00,2013-03-11 21:15:00,
2013-03-11 13:20:00,38.8,17.7,30.03,ENE,69,0.0,8.3,42,0.00,,---,0.00,VWS V13.00,2013-03-11 21:20:00,
2013-03-11 13:25:00,38.8,17.7,30.03,WNW,299,3.6,3.6,42,0.00,,---,0.00,VWS V13.00,2013-03-11 21:25:00,
2013-03-11 13:30:00,38.5,17.4,30.03,East,86,0.0,3.6,42,0.00,,---,0.00,VWS V13.00,2013-03-11 21:30:00,
2013-03-11 13:35:00,37.8,16.2,30.03,ENE,75,0.0,5.8,41,0.00,,---,0.00,VWS V13.00,2013-03-11 21:35:00,
2013-03-11 13:40:00,37.8,16.2,30.03,NNE,22,0.0,5.8,41,0.00,,---,0.00,VWS V13.00,2013-03-11 21:40:00,
2013-03-11 13:45:00,38.5,17.4,30.03,NW,308,0.0,0.0,42,0.00,,---,0.00,VWS V13.00,2013-03-11 21:45:00,
2013-03-11 13:50:00,38.5,17.4,30.03,SSW,208,0.0,4.9,42,0.00,,---,0.00,VWS V13.00,2013-03-11 21:50:00,
2013-03-11 13:55:00,38.5,17.4,30.03,ESE,119,0.0,4.9,42,0.00,,---,0.00,VWS V13.00,2013-03-11 21:55:00,
2013-03-11 14:00:00,39.2,17.5,30.03,East,87,0.0,0.0,41,0.00,,---,0.00,VWS V13.00,2013-03-11 22:00:00,
2013-03-11 14:05:00,39.2,17.5,30.03,East,87,4.0,4.0,41,0.00,,---,0.00,VWS V13.00,2013-03-11 22:05:00,
2013-03-11 14:10:00,38.8,17.2,30.03,ENE,60,0.0,4.0,41,0.00,,---,0.00,VWS V13.00,2013-03-11 22:10:00,
2013-03-11 14:15:00,38.8,17.2,30.03,ENE,78,0.0,4.0,41,0.00,,---,0.00,VWS V13.00,2013-03-11 22:15:00,
2013-03-11 14:20:00,39.4,17.7,30.03,NNW,328,0.0,4.0,41,0.00,,---,0.00,VWS V13.00,2013-03-11 22:20:00,
2013-03-11 14:25:00,39.9,18.1,30.03,East,85,0.0,0.0,41,0.00,,---,0.00,VWS V13.00,2013-03-11 22:25:00,
2013-03-11 14:30:00,39.9,18.1,30.03,ENE,62,0.0,11.0,41,0.00,,---,0.00,VWS V13.00,2013-03-11 22:30:00,
2013-03-11 14:35:00,40.3,17.9,30.03,NNW,339,6.3,11.0,40,0.00,,---,0.00,VWS V13.00,2013-03-11 22:35:00,
2013-03-11 14:40:00,40.3,17.9,30.03,ENE,59,0.0,0.0,40,0.00,,---,0.00,VWS V13.00,2013-03-11 22:40:00,
2013-03-11 14:45:00,39.9,17.6,30.03,ENE,60,7.6,8.1,40,0.00,,---,0.00,VWS V13.00,2013-03-11 22:45:00,
2013-03-11 14:50:00,39.6,16.7,30.03,North,6,6.3,10.1,39,0.00,,---,0.00,VWS V13.00,2013-03-11 22:50:00,
2013-03-11 14:55:00,39.6,16.7,30.03,NW,316,0.0,10.1,39,0.00,,---,0.00,VWS V13.00,2013-03-11 22:55:00,
2013-03-11 15:00:00,39.6,16.7,30.03,ENE,63,0.0,10.1,39,0.00,,---,0.00,VWS V13.00,2013-03-11 23:00:00,
2013-03-11 15:05:00,40.3,17.3,30.03,NNE,16,0.0,0.0,39,0.00,,---,0.00,VWS V13.00,2013-03-11 23:05:00,
2013-03-11 15:10:00,41.0,18.0,30.03,North,5,0.0,0.0,39,0.00,,---,0.00,VWS V13.00,2013-03-11 23:10:00,
2013-03-11 15:15:00,41.0,18.0,30.03,ENE,68,2.2,10.1,39,0.00,,---,0.00,VWS V13.00,2013-03-11 23:15:00,
2013-03-11 15:20:00,41.0,18.0,30.03,East,98,5.4,10.1,39,0.00,,---,0.00,VWS V13.00,2013-03-11 23:20:00,
2013-03-11 15:25:00,41.0,18.0,30.03,North,353,0.0,8.3,39,0.00,,---,0.00,VWS V13.00,2013-03-11 23:25:00,
2013-03-11 15:30:00,40.6,19.4,30.03,WNW,301,0.0,8.3,42,0.00,,---,0.00,VWS V13.00,2013-03-11 23:30:00,
2013-03-11 15:35:00,40.5,18.1,30.03,ENE,60,0.0,8.3,40,0.00,,---,0.00,VWS V13.00,2013-03-11 23:35:00,
2013-03-11 15:40:00,40.5,18.6,30.03,NNE,22,0.0,8.3,41,0.00,,---,0.00,VWS V13.00,2013-03-11 23:40:00,
2013-03-11 15:45:00,40.5,18.6,30.03,WNW,301,0.0,0.0,41,0.00,,---,0.00,VWS V13.00,2013-03-11 23:45:00,
2013-03-11 15:50:00,41.9,19.9,30.03,NE,45,0.0,0.0,41,0.00,,---,0.00,VWS V13.00,2013-03-11 23:50:00,
2013-03-11 15:55:00,39.7,16.8,30.00,North,357,0.0,0.0,39,0.00,,---,0.00,VWS V13.00,2013-03-11 23:55:00,
2013-03-11 16:00:00,39.7,16.8,30.00,NNW,331,0.0,11.0,39,0.00,,---,0.00,VWS V13.00,2013-03-12 00:00:00,
2013-03-11 16:05:00,40.3,18.5,30.00,NNE,14,0.0,5.8,41,0.00,,---,0.00,VWS V13.00,2013-03-12 00:05:00,
2013-03-11 16:10:00,40.3,18.5,30.00,NNW,329,0.0,5.8,41,0.00,,---,0.00,VWS V13.00,2013-03-12 00:10:00,
2013-03-11 16:15:00,40.3,18.5,30.00,SSW,207,0.0,5.8,41,0.00,,---,0.00,VWS V13.00,2013-03-12 00:15:00,
2013-03-11 16:20:00,40.5,18.1,30.00,WNW,293,8.3,8.3,40,0.00,,---,0.00,VWS V13.00,2013-03-12 00:20:00,
2013-03-11 16:25:00,40.5,18.1,30.00,NW,312,0.0,8.3,40,0.00,,---,0.00,VWS V13.00,2013-03-12 00:25:00,
2013-03-11 16:30:00,39.4,16.5,30.00,West,269,0.0,8.3,39,0.00,,---,0.00,VWS V13.00,2013-03-12 00:30:00,
2013-03-11 16:35:00,39.4,16.5,30.00,NW,316,0.0,8.3,39,0.00,,---,0.00,VWS V13.00,2013-03-12 00:35:00,
2013-03-11 16:40:00,39.6,16.7,30.00,North,10,8.3,8.3,39,0.00,,---,0.00,VWS V13.00,2013-03-12 00:40:00,
2013-03-11 16:45:00,39.4,16.5,30.00,NW,321,9.6,9.6,39,0.00,,---,0.00,VWS V13.00,2013-03-12 00:45:00,
2013-03-11 16:50:00,39.4,16.5,30.00,NNE,25,0.0,9.6,39,0.00,,---,0.00,VWS V13.00,2013-03-12 00:50:00,
2013-03-11 16:55:00,39.6,16.7,30.00,SSW,209,0.0,9.6,39,0.00,,---,0.00,VWS V13.00,2013-03-12 00:55:00,
2013-03-11 17:00:00,39.7,17.4,30.00,SSW,209,0.0,0.0,40,0.00,,---,0.00,VWS V13.00,2013-03-12 01:00:00,
2013-03-11 17:05:00,39.7,18.0,30.00,West,277,0.0,4.5,41,0.00,,---,0.00,VWS V13.00,2013-03-12 01:05:00,
2013-03-11 17:10:00,39.7,16.8,30.00,SE,131,0.0,4.5,39,0.00,,---,0.00,VWS V13.00,2013-03-12 01:10:00,
2013-03-11 17:15:00,39.6,16.7,30.00,NW,305,0.0,4.5,39,0.00,,---,0.00,VWS V13.00,2013-03-12 01:15:00,
2013-03-11 17:20:00,39.6,16.7,30.00,NE,51,0.0,0.0,39,0.00,,---,0.00,VWS V13.00,2013-03-12 01:20:00,
2013-03-11 17:25:00,39.9,17.6,30.00,NE,51,0.0,0.0,40,0.00,,---,0.00,VWS V13.00,2013-03-12 01:25:00,
2013-03-11 17:30:00,39.2,16.3,30.00,East,91,0.0,0.0,39,0.00,,---,0.00,VWS V13.00,2013-03-12 01:30:00,
2013-03-11 17:35:00,38.7,15.9,30.00,ENE,63,0.0,0.0,39,0.00,,---,0.00,VWS V13.00,2013-03-12 01:35:00,
2013-03-11 17:40:00,38.5,15.7,30.00,East,96,0.0,0.0,39,0.00,,---,0.00,VWS V13.00,2013-03-12 01:40:00,
2013-03-11 17:45:00,38.5,15.7,30.00,NW,325,12.8,12.8,39,0.00,,---,0.00,VWS V13.00,2013-03-12 01:45:00,
2013-03-11 17:50:00,38.3,16.1,30.00,NW,325,12.8,12.8,40,0.00,,---,0.00,VWS V13.00,2013-03-12 01:50:00,
2013-03-11 17:55:00,38.3,16.1,30.00,NW,325,12.8,12.8,40,0.00,,---,0.00,VWS V13.00,2013-03-12 01:55:00,
2013-03-11 18:00:00,38.1,15.9,30.00,South,169,0.0,0.0,40,0.00,,---,0.00,VWS V13.00,2013-03-12 02:00:00,
2013-03-11 18:05:00,38.1,15.9,30.00,North,357,0.0,0.0,40,0.00,,---,0.00,VWS V13.00,2013-03-12 02:05:00,
2013-03-11 18:10:00,37.8,15.6,30.00,WSW,241,0.0,0.0,40,0.00,,---,0.00,VWS V13.00,2013-03-12 02:10:00,
2013-03-11 18:15:00,37.6,15.5,30.00,ENE,70,0.0,0.0,40,0.00,,---,0.00,VWS V13.00,2013-03-12 02:15:00,
2013-03-11 18:20:00,37.6,15.5,30.00,ENE,70,0.0,0.0,40,0.00,,---,0.00,VWS V13.00,2013-03-12 02:20:00,
2013-03-11 18:25:00,37.4,15.3,30.00,ENE,70,0.0,0.0,40,0.00,,---,0.00,VWS V13.00,2013-03-12 02:25:00,
2013-03-11 18:30:00,37.4,15.3,30.00,ESE,114,0.0,0.0,40,0.00,,---,0.00,VWS V13.00,2013-03-12 02:30:00,
2013-03-11 18:35:00,37.4,15.3,30.00,ESE,114,0.0,0.0,40,0.00,,---,0.00,VWS V13.00,2013-03-12 02:35:00,
2013-03-11 18:40:00,37.4,15.3,30.00,NW,326,0.0,0.0,40,0.00,,---,0.00,VWS V13.00,2013-03-12 02:40:00,
2013-03-11 18:45:00,37.4,15.3,30.00,NW,326,0.0,0.0,40,0.00,,---,0.00,VWS V13.00,2013-03-12 02:45:00,
2013-03-11 18:50:00,37.2,15.1,30.00,South,170,0.0,0.0,40,0.00,,---,0.00,VWS V13.00,2013-03-12 02:50:00,
2013-03-11 18:55:00,37.2,15.1,29.97,East,97,0.0,0.0,40,0.00,,---,0.00,VWS V13.00,2013-03-12 02:55:00,
2013-03-11 19:00:00,37.2,15.1,29.97,East,97,0.0,0.0,40,0.00,,---,0.00,VWS V13.00,2013-03-12 03:00:00,
2013-03-11 19:05:00,37.2,14.6,29.97,ENE,75,0.0,0.0,39,0.00,,---,0.00,VWS V13.00,2013-03-12 03:05:00,
2013-03-11 19:10:00,37.2,14.6,29.97,ENE,75,0.0,0.0,39,0.00,,---,0.00,VWS V13.00,2013-03-12 03:10:00,
2013-03-11 19:15:00,36.9,14.2,29.97,ENE,75,0.0,0.0,39,0.00,,---,0.00,VWS V13.00,2013-03-12 03:15:00,
2013-03-11 19:20:00,36.9,14.2,29.97,North,353,5.8,5.8,39,0.00,,---,0.00,VWS V13.00,2013-03-12 03:20:00,
2013-03-11 19:25:00,36.7,13.5,29.97,North,353,5.8,5.8,38,0.00,,---,0.00,VWS V13.00,2013-03-12 03:25:00,
2013-03-11 19:30:00,36.7,14.6,29.97,ENE,75,5.4,5.8,40,0.00,,---,0.00,VWS V13.00,2013-03-12 03:30:00,
2013-03-11 19:35:00,36.5,13.9,29.97,East,90,10.5,10.5,39,0.00,,---,0.00,VWS V13.00,2013-03-12 03:35:00,
2013-03-11 19:40:00,36.5,13.9,29.97,ESE,103,0.0,0.0,39,0.00,,---,0.00,VWS V13.00,2013-03-12 03:40:00,
2013-03-11 19:45:00,36.1,13.6,29.97,East,97,0.0,0.0,39,0.00,,---,0.00,VWS V13.00,2013-03-12 03:45:00,
2013-03-11 19:50:00,36.1,13.0,29.97,East,97,0.0,0.0,38,0.00,,---,0.00,VWS V13.00,2013-03-12 03:50:00,
2013-03-11 19:55:00,36.1,13.0,29.97,NW,320,5.8,5.8,38,0.00,,---,0.00,VWS V13.00,2013-03-12 03:55:00,
2013-03-11 20:00:00,36.1,13.0,29.97,North,353,0.0,5.8,38,0.00,,---,0.00,VWS V13.00,2013-03-12 04:00:00,
2013-03-11 20:05:00,36.1,13.0,29.97,ENE,67,0.0,0.0,38,0.00,,---,0.00,VWS V13.00,2013-03-12 04:05:00,
2013-03-11 20:10:00,36.1,12.4,29.97,NNE,12,3.6,3.6,37,0.00,,---,0.00,VWS V13.00,2013-03-12 04:10:00,
2013-03-11 20:15:00,36.0,12.8,29.97,NNE,12,3.6,3.6,38,0.00,,---,0.00,VWS V13.00,2013-03-12 04:15:00,
2013-03-11 20:20:00,36.0,12.8,29.97,ENE,63,0.0,0.0,38,0.00,,---,0.00,VWS V13.00,2013-03-12 04:20:00,
2013-03-11 20:25:00,36.0,12.8,29.97,ESE,110,0.0,0.0,38,0.00,,---,0.00,VWS V13.00,2013-03-12 04:25:00,
2013-03-11 20:30:00,35.8,12.7,29.97,ESE,110,0.0,0.0,38,0.00,,---,0.00,VWS V13.00,2013-03-12 04:30:00,
2013-03-11 20:35:00,35.8,12.7,29.97,East,88,4.9,4.9,38,0.00,,---,0.00,VWS V13.00,2013-03-12 04:35:00,
2013-03-11 20:40:00,35.6,12.5,29.97,ENE,68,4.0,4.9,38,0.00,,---,0.00,VWS V13.00,2013-03-12 04:40:00,
2013-03-11 20:45:00,35.4,12.9,29.97,East,80,0.0,4.0,39,0.00,,---,0.00,VWS V13.00,2013-03-12 04:45:00,
2013-03-11 20:50:00,35.4,12.9,29.97,East,82,0.0,4.0,39,0.00,,---,0.00,VWS V13.00,2013-03-12 04:50:00,
2013-03-11 20:55:00,35.4,12.9,29.97,East,82,0.0,4.0,39,0.00,,---,0.00,VWS V13.00,2013-03-12 04:55:00,
2013-03-11 21:00:00,35.4,12.9,29.97,NE,56,0.0,0.0,39,0.00,,---,0.00,VWS V13.00,2013-03-12 05:00:00,
2013-03-11 21:05:00,35.6,12.5,29.97,NW,316,12.3,12.3,38,0.00,,---,0.00,VWS V13.00,2013-03-12 05:05:00,
2013-03-11 21:10:00,35.4,12.9,29.97,NW,316,12.3,12.3,39,0.00,,---,0.00,VWS V13.00,2013-03-12 05:10:00,
2013-03-11 21:15:00,35.4,13.5,29.97,NNE,19,0.0,12.3,40,0.00,,---,0.00,VWS V13.00,2013-03-12 05:15:00,
2013-03-11 21:20:00,35.4,13.5,29.97,East,82,0.0,12.3,40,0.00,,---,0.00,VWS V13.00,2013-03-12 05:20:00,
2013-03-11 21:25:00,35.4,13.5,29.97,ENE,62,2.2,2.2,40,0.00,,---,0.00,VWS V13.00,2013-03-12 05:25:00,
2013-03-11 21:30:00,34.9,13.0,29.97,NNW,342,0.0,2.2,40,0.00,,---,0.00,VWS V13.00,2013-03-12 05:30:00,
2013-03-11 21:35:00,34.9,12.4,29.97,NNW,342,0.0,2.2,39,0.00,,---,0.00,VWS V13.00,2013-03-12 05:35:00,
2013-03-11 21:40:00,35.2,12.8,29.97,ESE,104,0.0,2.2,39,0.00,,---,0.00,VWS V13.00,2013-03-12 05:40:00,
2013-03-11 21:45:00,35.2,13.4,29.97,ENE,74,3.1,3.1,40,0.00,,---,0.00,VWS V13.00,2013-03-12 05:45:00,
2013-03-11 21:50:00,34.9,11.9,29.97,ENE,72,0.0,3.1,38,0.00,,---,0.00,VWS V13.00,2013-03-12 05:50:00,
2013-03-11 21:55:00,34.9,11.9,29.97,ENE,64,3.6,3.6,38,0.00,,---,0.00,VWS V13.00,2013-03-12 05:55:00,
2013-03-11 22:00:00,34.9,11.9,29.97,ENE,78,10.1,10.1,38,0.00,,---,0.00,VWS V13.00,2013-03-12 06:00:00,
2013-03-11 22:05:00,34.7,12.3,29.97,ENE,67,0.0,10.1,39,0.00,,---,0.00,VWS V13.00,2013-03-12 06:05:00,
2013-03-11 22:10:00,34.5,12.1,29.97,NNE,24,0.0,10.1,39,0.00,,---,0.00,VWS V13.00,2013-03-12 06:10:00,
2013-03-11 22:15:00,34.5,12.1,29.97,ENE,78,8.7,10.1,39,0.00,,---,0.00,VWS V13.00,2013-03-12 06:15:00,
2013-03-11 22:20:00,34.7,12.3,29.97,East,81,0.0,10.1,39,0.00,,---,0.00,VWS V13.00,2013-03-12 06:20:00,
2013-03-11 22:25:00,34.7,12.3,29.97,NE,54,0.0,0.0,39,0.00,,---,0.00,VWS V13.00,2013-03-12 06:25:00,
2013-03-11 22:30:00,34.5,12.7,29.97,ESE,106,0.0,0.0,40,0.00,,---,0.00,VWS V13.00,2013-03-12 06:30:00,
2013-03-11 22:35:00,34.5,12.7,29.97,East,85,4.9,4.9,40,0.00,,---,0.00,VWS V13.00,2013-03-12 06:35:00,
2013-03-11 22:40:00,34.7,11.7,29.97,ENE,71,8.1,8.1,38,0.00,,---,0.00,VWS V13.00,2013-03-12 06:40:00,
2013-03-11 22:44:00,34.7,11.7,29.97,NNE,20,0.0,8.1,38,0.00,,---,0.00,VWS V13.00,2013-03-12 06:44:00,
2013-03-11 22:49:00,34.5,12.1,29.97,NE,43,7.6,8.1,39,0.00,,---,0.00,VWS V13.00,2013-03-12 06:49:00,
2013-03-11 22:54:00,34.7,12.3,29.97,NE,39,0.0,8.1,39,0.00,,---,0.00,VWS V13.00,2013-03-12 06:54:00,
2013-03-11 22:59:00,34.7,12.3,29.97,NNE,32,0.0,8.1,39,0.00,,---,0.00,VWS V13.00,2013-03-12 06:59:00,
2013-03-11 23:04:00,34.7,12.3,29.97,East,84,6.3,6.3,39,0.00,,---,0.00,VWS V13.00,2013-03-12 07:04:00,
2013-03-11 23:09:00,34.7,11.7,29.97,NE,47,7.6,12.8,38,0.00,,---,0.00,VWS V13.00,2013-03-12 07:09:00,
2013-03-11 23:14:00,34.7,11.7,29.97,ENE,64,4.9,12.8,38,0.00,,---,0.00,VWS V13.00,2013-03-12 07:14:00,
2013-03-11 23:19:00,34.7,11.7,29.97,East,79,10.5,12.8,38,0.00,,---,0.00,VWS V13.00,2013-03-12 07:19:00,
2013-03-11 23:24:00,34.9,11.9,29.97,ENE,73,7.6,10.5,38,0.00,,---,0.00,VWS V13.00,2013-03-12 07:24:00,
2013-03-11 23:29:00,34.7,12.3,29.97,ESE,108,0.0,10.5,39,0.00,,---,0.00,VWS V13.00,2013-03-12 07:29:00,
2013-03-11 23:34:00,34.5,12.1,29.97,East,90,3.6,10.5,39,0.00,,---,0.00,VWS V13.00,2013-03-12 07:34:00,
2013-03-11 23:39:00,34.5,12.1,29.97,ESE,104,0.0,10.5,39,0.00,,---,0.00,VWS V13.00,2013-03-12 07:39:00,
2013-03-11 23:44:00,34.5,12.1,29.97,North,2,0.0,0.0,39,0.00,,---,0.00,VWS V13.00,2013-03-12 07:44:00,
2013-03-11 23:49:00,34.5,11.5,29.97,North,2,0.0,0.0,38,0.00,,---,0.00,VWS V13.00,2013-03-12 07:49:00,
2013-03-11 23:54:00,34.5,11.5,29.97,ENE,58,0.0,0.0,38,0.00,,---,0.00,VWS V13.00,2013-03-12 07:54:00,
2013-03-11 23:59:00,34.3,12.0,29.97,ENE,59,0.0,4.5,39,0.00,,---,0.00,VWS V13.00,2013-03-12 07:59:00,